Regional Weather Roundup
Issued by NWS Charleston, SC

Current Version | Previous Version | Graphics & Text | Print | Product List | Glossary On
Versions: 1 2 3 4 5 6 7 8 9 10 11 12 13 14 15 16 17 18 19 20 21 22 23 24 25 26 27 28 29 30 31 32 33 34 35 36 37 38 39 40 41 42 43 44 45 46 47 48 49 50
000
ASUS42 KCHS 201710
RWRCHS
REGIONAL WEATHER ROUNDUP
NATIONAL WEATHER SERVICE CHARLESTON SC
100 PM EDT SUN APR 20 2014

NOTE: "FAIR" INDICATES FEW OR NO CLOUDS BELOW 12,000 FEET WITH NO
SIGNIFICANT WEATHER AND/OR OBSTRUCTIONS TO VISIBILITY.

NOT ALL STATIONS ARE QUALITY CONTROLLED BY THE NATIONAL
WEATHER SERVICE. USE DATA WITH CAUTION...ESPECIALLY
DEWPOINT OBSERVATIONS.

SCZ027-030-031-034>040-042>050-201800-
...SOUTH CAROLINA...

CITY           SKY/WX    TMP DP  RH WIND       PRES   REMARKS
N CHARLESTON   CLOUDY    66  51  58 N21       30.09F
WATERFRONT PRK   N/A     63 N/A N/A N18         N/A
FORT JOHNSON   NOT AVBL
MOUNT PLEASANT NOT AVBL
JOHNS ISLAND   PTSUNNY   64  55  72 N13G18    30.08F
PINOPOLIS        N/A     63  52  67 N16       30.03F
MONCKS CORNER  PTSUNNY   64  54  68 N14G20    30.11F
SUMMERVILLE    NOT AVBL
BEAUFORT MCAS  CLOUDY    63  51  65 NE12      30.12F
BEAUFORT ARPT  CLOUDY    61  55  82 N16       30.11F
HILTON HEAD IS PTSUNNY   59  52  77 MISG      30.12S
GEORGETOWN     NOT AVBL
WALTERBORO     CLOUDY    63  50  63 N12G18    30.14F
ORANGEBURG     CLOUDY    64  43  46 N15G25    30.17S
BARNWELL       PTSUNNY   63  45  51 NE17G23   30.18F
AIKEN          CLOUDY    64  45  48 N14G24    30.23F
MANNING        CLOUDY    64  48  55 NE13G21   30.14F
KINGSTREE      NOT AVBL
COLUMBIA       PTSUNNY   67  38  34 NE12G21   30.19F
SUMTER         CLOUDY    65  43  45 NE20G28   30.16F
FLORENCE       CLOUDY    61  43  51 NE18G26   30.17S
MYRTLE BEACH   NOT AVBL
N MYRTLE BEACH LGT RAIN  58  51  78 N20G36    30.07S

$$

GAZ063-065-086>088-099>101-113>116-118-119-134-136>141-150-201800-
...GEORGIA...

CITY           SKY/WX    TMP DP  RH WIND       PRES   REMARKS
SAVANNAH ARPT  PTSUNNY   63  52  67 NE15G21   30.12F
HUNTER AAF     CLOUDY    61  53  73 VRB7G18   30.10S
FORT STEWART   CLOUDY    60  56  89 VRB7G17   30.12S
STATESBORO     NOT AVBL
SYLVANIA       CLOUDY    63  51  65 NE18G25   30.16F
CLAXTON        CLOUDY    61  55  82 NE8G22    30.15S
THOMSON        SUNNY     66  46  48 N13G18    30.25F
AUGUSTA-BUSH   PTSUNNY   67  44  43 N12       30.19F
AUGUSTA-DANIEL CLOUDY    67  40  37 NE17G23   30.20F
SWAINSBORO     CLOUDY    63  52  67 NE8       30.18F
VIDALIA        CLOUDY    57  52  82 N5        30.17F
ALMA           CLOUDY    57  52  83 VRB5      30.16F HAZE
WAYCROSS       NOT AVBL
JESUP          CLOUDY    54  54 100 N5        30.16R
BRUNSWICK      CLOUDY    55  55 100 N6        30.14F
SAINT SIMONS   LGT RAIN  56  54  93 NW6       30.13S FOG

$$

SCZ027-028-034-036>038-045-046-048>050-GAZ119-141-201800-
...LAKE AND SUPPLEMENTAL COASTAL OBSERVATIONS...

STATION/POSITION TIME  TEMP    WIND        PRES    WAVE   SWELL
                       AIR SEA DIR/SP/G            HT/PER HT/PER/DIR
                 (UTC) (F)     (DEG/KT/KT) (MB)    (FT/S) (FT/S/D)
UPR LAKE MARION  NOT AVBL
WINYAH BAY       1600   60      10/ 10     1018.0S
LAKE MURRAY      1600   63      30/  4/  8 1022.4F
ACE BASIN NERRS  1600   57     350/  4     1020.0S
FORT PULASKI     1700   58 58  360/ 15/ 19 1019.8S
SAPELO ISLAND    1600   57     360/  9     1020.0S

$$

ANZ835-935-AMZ111-154-330-350-352-354-374-450-454-472-201800-
...C-MAN AND BUOY OBSERVATIONS...

STATION/POSITION TIME  TEMP    WIND        PRES    WAVE   SWELL
                       AIR SEA DIR/SP/G            HT/PER HT/PER/DIR
                 (UTC) (F)     (DEG/KT/KT) (MB)    (FT/S) (FT/S/D)
FOLLY BEACH CMAN 1600   61     350/ 14/ 16 1019.2R
BUOY 41004       NOT AVBL
BUOY 41008       1700   58 63   10/ 17/ 21 1018.5F   6/ 6   2/ 90/ 9
5E ST. MARYS GA  1700      64                N/A     5/ 6   2/ 90/11
FRYING PAN BUOY  1700   59 69   20/ 33/ 39 1014.0F  10/ 7   3/130/11
BUOY 41025       1700   68 76   70/ 31/ 39 1015.0F  18/11  11/ 60/11
CAPE LOOKOUT NC  1600   58      10/ 24/ 29 1016.8F
BUOY 41002       NOT AVBL
BUOY 41010       1700   73 76  340/ 10/ 16 1014.3F   6/ 8   5/ 30/ 8
BUOY 41012       NOT AVBL
ST AUGUSTINE FL  1700   59     350/ 19/ 21 1019.7S
CAPERS NEARSHORE NOT AVBL
FRIPP NEARSHORE  1600   56      10/ 16/ 17   N/A


$$



USA.gov is the U.S. government's official web portal to all federal, state and local government web resources and services.